Location: Clinton NY
(43.0598°N, 75.3602°W)
Time: 05:30:37
(UTC-05:00)

Daily predictions for brighter satellites

Satellite Brightness Start Highest point End
(mag) Time Altitude Azimuth Time Altitude Azimuth Time Altitude Azimuth
COSMOS 2406 4.3 04:18:02 40° ESE 04:18:02 40° ESE 04:21:44 10° SE
ATLAS CENTAUR R/B 4.1 04:17:58 17° ENE 04:17:58 17° ENE 04:19:44 10° E
COSMOS 2455 4.4 04:30:53 25° N 04:30:53 25° N 04:33:28 10° NNE
USA 234 3.9 04:22:05 10° NE 04:27:02 42° N 04:27:02 42° N
IDEFIX/ARIANE 42P 4.4 04:27:38 10° NE 04:32:11 29° E 04:36:42 10° SSE
BREEZE-M DEB (TANK) 4.4 04:40:55 38° SE 04:41:27 39° SE 04:49:49 10° ENE
CENTAUR R/B 4.1 04:44:06 23° N 04:44:06 23° N 04:48:25 10° NNE
CZ-4C R/B 2.8 04:49:29 58° NW 04:51:12 83° WSW 04:59:16 10° SSE
SL-08 ROCKET BODY 4.4 04:53:35 10° S 04:59:25 76° E 05:05:20 10° N
CZ-2C R/B 4.2 04:56:56 10° SSE 05:00:30 52° S 05:00:30 52° S
DELTA 2 R/B (1) 4.1 05:05:26 43° SSW 05:05:32 43° SSW 05:10:49 10° SE
Cosmos 2278 Rocket 2.7 05:00:10 10° S 05:05:43 59° ESE 05:11:17 10° NNE
Cosmos 2181 Rocket 3.8 05:03:06 10° N 05:09:23 78° W 05:15:32 10° S
Cosmos 1315 Rocket 3.8 05:11:30 37° S 05:11:30 37° S 05:14:01 10° S
CZ-2C R/B 3.4 05:07:03 10° NNE 05:11:27 43° E 05:15:55 10° S
Cosmos 1570 Rocket 4.1 05:11:59 28° N 05:14:46 73° ENE 05:19:58 10° SSE
Cosmos 332 Rocket 3.6 05:15:40 67° NW 05:16:13 77° WSW 05:21:04 10° SSE
Feng Yun 1-1 Rocket 4.2 05:11:41 10° NNE 05:17:08 78° ESE 05:22:30 10° S
Cosmos 1844 Rocket 3.3 05:18:35 38° NNW 05:18:35 38° NNW 05:22:47 10° NNE
Tiangong 2 1.8 05:29:09 49° SSE 05:29:09 49° SSE 05:32:05 10° E
Cosmos 1766 Rocket 3.4 05:27:17 24° N 05:29:52 85° W 05:34:17 10° S
Cosmos 1328 3.7 05:35:49 55° NW 05:36:23 62° W 05:40:18 10° S
Cosmos 1741 Rocket 3.9 05:32:48 10° SSW 05:38:01 66° WNW 05:43:15 10° NNE
Cosmos 1844 4.1 05:37:18 37° WNW 05:38:07 39° WNW 05:43:25 10° NNE
COSMO-SKYMED 1 2.6 05:33:54 10° S 05:38:08 53° W 05:39:11 42° NW
Cosmos 2327 Rocket 4.5 05:33:47 10° S 05:39:59 83° E 05:46:08 10° N
Meteor 1-16 Rocket 4.1 05:36:44 10° SSW 05:42:18 67° WNW 05:47:45 10° N
Cosmos 2082 Rocket 2.6 05:41:24 10° NNW 05:47:00 63° ENE 05:52:32 10° SE
Okean-O 2.6 05:43:10 10° N 05:47:31 55° WNW 05:51:50 10° SSW
Meteor 2-8 Rocket 4.4 05:42:04 10° NNW 05:48:08 62° W 05:54:09 10° S
Cosmos 1626 2.1 05:48:47 31° NNW 05:50:20 56° W 05:53:59 10° S
Meteor 1-11 4.2 05:46:34 10° NNW 05:52:21 70° W 05:58:06 10° S
Cosmos 1842 Rocket 4.2 05:48:12 10° S 05:52:36 60° E 05:57:02 10° NNE
SJ-12 4.0 05:49:31 10° NNE 05:53:40 80° ESE 05:57:47 10° S
ATLAS CENTAUR R/B 1.5 05:54:16 32° WNW 05:55:51 53° WSW 06:00:05 10° SSE
COSMOS 2406 4.4 06:00:10 20° WSW 06:00:10 20° WSW 06:03:58 10° SW
Cosmos 1703 3.1 05:56:31 10° NNW 06:00:28 72° W 06:04:23 10° S
Cosmos 371 Rocket 4.0 06:00:05 26° WNW 06:01:40 31° W 06:05:56 10° SSW
Meteor 2-19 Rocket 4.5 06:02:08 10° SSW 06:08:04 56° WNW 06:14:01 10° N
Cosmos 2184 Rocket 4.1 06:02:10 10° SSW 06:08:16 54° WNW 06:14:29 10° N
Radarsat Rocket 4.1 06:02:34 10° N 06:09:07 57° WNW 06:15:00 10° SW
Cosmos 2058 2.8 06:05:03 10° NNW 06:09:17 75° W 06:13:27 10° S
USA 234 4.4 06:05:01 10° NE 06:10:19 27° N 06:14:23 15° NW
SMAP 3.9 06:06:10 10° NNE 06:10:44 54° E 06:15:17 10° S
Cosmos-2242 3.6 06:07:01 10° SW 06:10:53 32° WNW 06:14:47 10° N
Meteor 2-1 Rocket 4.2 06:05:56 10° S 06:11:27 88° E 06:17:04 10° N
IDEFIX/ARIANE 42P 3.0 06:07:00 10° N 06:11:51 38° WNW 06:16:40 10° SW
COSMOS 2441 4.3 06:07:34 10° N 06:12:18 60° WNW 06:17:02 10° SSW
Cosmos 2297 3.8 06:07:05 10° SSW 06:12:48 84° ESE 06:18:33 10° NNE
Cosmos 1833 Rocket 2.6 06:09:48 10° NNW 06:15:27 76° WSW 06:21:05 10° SSE
GPS 2-04 Rocket1 4.3 06:16:02 12° WSW 06:19:20 28° S 06:23:00 10° SE
Cosmos 1484 Rocket 2.6 06:16:27 10° N 06:20:12 85° WNW 06:23:58 10° SSW
Cosmos 1408 Rocket 4.5 06:17:34 10° NNW 06:21:12 27° W 06:24:54 10° SSW
Abrixas rocket 2.9 06:21:08 20° W 06:22:58 40° SW 06:26:02 10° SE
SJ-7 4.4 06:20:25 10° N 06:24:41 82° WNW 06:28:55 10° SSW
Cosmos 2151 3.1 06:21:15 10° NNW 06:25:27 53° W 06:29:38 10° S
Thor Agena Rocket 3.5 06:20:52 10° S 06:26:05 75° WSW 06:31:25 10° NNW
Nadezhda 3 Rocket 4.0 06:20:06 10° NNW 06:26:25 71° W 06:32:39 10° S
SL-8 R/B 4.1 06:22:23 10° SW 06:27:07 64° SSE 06:31:54 10° ENE
CZ-4 R/B 2.1 06:24:01 10° NNE 06:28:06 58° E 06:32:02 10° S
Shenzhou-11 Module 1.9 06:27:07 17° W 06:29:16 83° S 06:32:17 10° E
USA 229 DEB 3.8 06:25:42 10° SW 06:32:19 55° NW 06:39:09 10° NNE
USA 229 3.8 06:25:47 10° SW 06:32:25 56° NW 06:39:15 10° NNE
Cosmos 1500 Rocket 3.7 06:29:59 10° NNW 06:34:18 52° W 06:38:31 10° S
NOSS 3-1 (A) 3.8 06:28:58 10° SSW 06:34:36 68° ESE 06:40:58 10° NE
SL-27 R/B 3.8 06:33:13 12° NW 06:35:45 23° W 06:38:41 10° SSW
CZ-4C R/B 4.3 06:34:43 11° WNW 06:39:07 19° WSW 06:44:15 10° SSW
Cosmos 1814 Rocket 4.1 06:34:56 10° NNW 06:40:00 53° WSW 06:44:59 10° S
Milstar 3 4.4 06:35:45 10° SW 06:41:10 24° S 06:46:27 10° SE
SeaSat 1 4.5 06:38:32 10° NE 06:43:00 33° ESE 06:47:26 10° S
MSX 4.4 06:39:06 10° N 06:44:15 35° WNW 06:49:24 10° SW
Cosmos 841 Rocket 3.5 06:39:35 10° NNW 06:44:45 70° WSW 06:49:50 10° S
CORIOLIS 4.2 06:39:36 10° NNE 06:45:02 89° ESE 06:50:28 10° SSW
Cosmos 1743 Rocket 4.4 06:44:48 10° NNW 06:48:29 28° W 06:52:11 10° SSW
Cosmos 2221 2.4 06:45:00 10° SSW 06:49:14 69° W 06:53:32 10° N
CZ-2C R/B 3.4 06:46:00 10° NNW 06:49:27 21° WNW 06:52:55 10° WSW
Cosmos 2278 Rocket 3.3 06:45:43 10° WSW 06:50:12 24° NW 06:54:43 10° N
Meteor 2-10 4.2 06:44:56 10° S 06:50:14 82° E 06:55:25 10° NNE
AQUARIUS 4.2 06:46:01 10° N 06:50:28 59° WNW 06:54:52 10° SSW
Cosmos 1300 2.9 06:46:41 10° S 06:50:29 77° E 06:54:20 10° N
CSL-04 Rocket 3.7 06:49:13 10° N 06:54:32 63° WNW 06:59:45 10° SSW
Cosmos 1763 Rocket 3.9 06:49:57 10° NW 06:54:42 40° WSW 06:59:27 10° S
ALOS 3.2 06:52:15 10° NNE 06:56:51 54° E 07:01:25 10° S
Cosmos 2366 rocket 4.5 06:51:15 10° S 06:57:32 70° E 07:03:51 10° NNE
IRAS Rocket 4.4 06:52:48 10° NNE 06:58:28 89° E 07:04:07 10° SSW
Sich 1 3.6 06:54:15 10° N 06:58:31 62° E 07:02:48 10° SSE
Cosmos 1486 Rocket 4.1 06:55:18 10° SSW 07:00:34 60° WNW 07:05:52 10° NNE
